Simultaneous Nadir Overpasses (SNOs) Predictions

Prediction of SNOs near equator between AQUA and NPP Satellite Orbit:

Table of predicted SNOs near equator for the next 14.0 days since TLE Epoch: 11/9/2019
Index Date (AQUA) Time (AQUA) AQUA Lat,Lon Date (NPP) Time (NPP) NPP Lat,Lon Distance(km) Time Diff (sec)
1 11/11/2019 15:42:48 -29.95, 143.40 11/11/2019 15:32:48 -30.56, 142.90 83.44 600
2 11/11/2019 16:24:49 2.88, -42.78 11/11/2019 16:15:44 2.83, -43.10 36.61 545
3 11/11/2019 17:12:57 1.63, 125.84 11/11/2019 17:05:07 1.73, 125.25 66.56 470
4 11/11/2019 18:01:12 -6.19, -65.57 11/11/2019 17:54:37 -6.40, -66.41 96.21 395
5 11/14/2019 07:52:40 -6.03, -95.20 11/14/2019 07:42:43 -6.02, -95.34 16.36 597
6 11/14/2019 08:40:54 1.43, 73.41 11/14/2019 08:32:13 1.35, 73.00 46.70 521
7 11/14/2019 09:29:02 3.09,-117.97 11/14/2019 09:21:36 3.20,-118.65 76.51 446
8 11/17/2019 00:08:45 -4.58, 20.99 11/16/2019 23:59:12 -4.55, 20.76 26.41 573
9 11/17/2019 00:56:59 -0.02,-170.40 11/17/2019 00:48:42 -0.11,-170.90 56.79 497
10 11/17/2019 01:45:08 4.48, -1.80 11/17/2019 01:38:05 4.67, -2.55 86.37 423
11 11/19/2019 16:24:50 -3.13, 137.18 11/19/2019 16:15:41 -3.08, 136.86 36.50 549
12 11/19/2019 17:13:04 -1.47, -54.21 11/19/2019 17:05:11 -1.58, -54.81 66.87 473
13 11/19/2019 18:01:13 5.93, 114.39 11/19/2019 17:54:34 6.14, 113.55 96.18 399
14 11/22/2019 07:52:46 6.23, 84.75 11/22/2019 07:42:46 6.18, 84.60 16.86 600
15 11/22/2019 08:40:54 -1.69,-106.63 11/22/2019 08:32:09 -1.62,-107.04 46.63 525
16 11/22/2019 09:29:08 -2.91, 61.97 11/22/2019 09:21:39 -3.04, 61.29 76.91 449




NCC Satellite Simultaneous Nadir Overpasses (SNOs) Prediction Service
